CES5022 RKSI-ZSQD

Flight info

Callsign CES5022
Flight time N/A
Altitude 36000
Route NOPIK2Y NOPIK Y697 AGAVO/K0841S1100 W209 LATUX LAT81A
Aircraft A20N/M-SDE2E3FGHIRWXY/LB1

Departure

Time N/A
Airport Incheon International Airport (RKSI)

Arrival

Time 2026-04-16 14:19
Airport Qingdao Jiaodong International Airport (ZSQD)
Time Latitude Longitude Altitude Speed Heading
2026-04-16 14:13 36.58355 119.99454 2969 ft 198 kts 189°
2026-04-16 14:13 36.56977 119.99449 2989 ft 197 kts 170°
2026-04-16 14:13 36.55647 119.99850 2988 ft 196 kts 163°
2026-04-16 14:13 36.54347 120.00368 2984 ft 195 kts 162°
2026-04-16 14:14 36.53103 120.00877 2966 ft 182 kts 162°
2026-04-16 14:14 36.51933 120.01350 2964 ft 174 kts 162°
2026-04-16 14:14 36.50775 120.01809 2832 ft 172 kts 162°
2026-04-16 14:14 36.49685 120.02236 2653 ft 156 kts 162°
2026-04-16 14:15 36.48692 120.02625 2421 ft 144 kts 163°
2026-04-16 14:15 36.47789 120.02979 2223 ft 130 kts 163°
2026-04-16 14:15 36.46943 120.03308 2034 ft 127 kts 162°
2026-04-16 14:15 36.46096 120.03641 1861 ft 127 kts 163°
2026-04-16 14:16 36.45244 120.03975 1690 ft 126 kts 163°
2026-04-16 14:16 36.44406 120.04304 1521 ft 126 kts 163°
2026-04-16 14:16 36.43569 120.04632 1359 ft 126 kts 163°
2026-04-16 14:16 36.42731 120.04960 1195 ft 125 kts 162°
2026-04-16 14:17 36.41901 120.05286 1032 ft 125 kts 163°
2026-04-16 14:17 36.41075 120.05619 855 ft 125 kts 162°
2026-04-16 14:17 36.40242 120.05930 671 ft 124 kts 163°
2026-04-16 14:17 36.39415 120.06256 524 ft 124 kts 162°
2026-04-16 14:18 36.38588 120.06576 359 ft 123 kts 161°
2026-04-16 14:18 36.37769 120.06903 207 ft 123 kts 162°
2026-04-16 14:18 36.36953 120.07224 49 ft 123 kts 162°
2026-04-16 14:18 36.36212 120.07516 32 ft 92 kts 161°
2026-04-16 14:19 36.35763 120.07691 40 ft 41 kts 161°
2026-04-16 14:19 36.35581 120.07813 43 ft 26 kts 139°
2026-04-16 14:19 36.35489 120.07953 45 ft 16 kts 85°
2026-04-16 14:19 36.35553 120.07990 45 ft 10 kts 340°
2026-04-16 14:20 36.35646 120.07954 44 ft 20 kts 343°
2026-04-16 14:20 36.35784 120.07900 42 ft 21 kts 344°
2026-04-16 14:20 36.35931 120.07842 40 ft 22 kts 342°
2026-04-16 14:20 36.36083 120.07783 36 ft 23 kts 342°
2026-04-16 14:21 36.36242 120.07722 33 ft 23 kts 343°
2026-04-16 14:21 36.36364 120.07674 31 ft 15 kts 342°
2026-04-16 14:21 36.36449 120.07666 29 ft 2 kts 43°
2026-04-16 14:21 36.36455 120.07674 29 ft 2 kts 57°
2026-04-16 14:22 36.36468 120.07717 29 ft 10 kts 73°
2026-04-16 14:22 36.36502 120.07848 28 ft 19 kts 72°
2026-04-16 14:22 36.36541 120.08002 28 ft 19 kts 72°
2026-04-16 14:22 36.36550 120.08157 31 ft 18 kts 102°
2026-04-16 14:23 36.36522 120.08294 31 ft 6 kts 117°
2026-04-16 14:23 36.36483 120.08321 32 ft 7 kts 163°
2026-04-16 14:23 36.36424 120.08344 33 ft 12 kts 160°
2026-04-16 14:23 36.36382 120.08425 34 ft 11 kts 103°
2026-04-16 14:24 36.36376 120.08527 34 ft 11 kts 114°
2026-04-16 14:24 36.36367 120.08599 34 ft 4 kts 71°
2026-04-16 14:24 36.36370 120.08611 34 ft 0 kts 72°